This is the latest recevied weather packets stored in our database for station/object W0VI. If no packets are shown the sender has not sent any weather packets the latest 10 day(s).
| Time | Temp. | Humidity | Pressure | Rain* | Wind** | Luminosity | Snow |
|---|---|---|---|---|---|---|---|
| 1788010515 | 19.44° C | 99% | 1013.2 hPa | 0 mm | - | 27 W/m² | - |
| 1788010210 | 19.44° C | 99% | 1013.4 hPa | 0 mm | - | 12 W/m² | - |
| 1788009909 | 19.44° C | 99% | 1013.2 hPa | 0 mm | - | 8 W/m² | - |
| 1788009608 | 19.44° C | 99% | 1013.3 hPa | 0 mm | - | 7 W/m² | - |
| 1788009302 | 19.44° C | 99% | 1013.2 hPa | 0 mm | - | 10 W/m² | - |
| 1788008997 | 19.44° C | 99% | 1013.6 hPa | 0 mm | - | 9 W/m² | - |
| 1788008693 | 19.44° C | 99% | 1013.7 hPa | 0 mm | - | 6 W/m² | - |
| 1788008391 | 19.44° C | 99% | 1013.9 hPa | 0 mm | - | 3 W/m² | - |
| 1788008089 | 19.44° C | 99% | 1013.9 hPa | 0 mm | - | 1 W/m² | - |
| 1788007788 | 19.44° C | 99% | 1013.9 hPa | 0 mm | - | 3 W/m² | - |
| 1788007482 | 19.44° C | 99% | 1013.8 hPa | 0 mm | - | 5 W/m² | - |
| 1788007176 | 19.44° C | 99% | 1013.7 hPa | 0 mm | - | 3 W/m² | - |
| 1788006875 | 19.44° C | 99% | 1014.1 hPa | 0 mm | - | 3 W/m² | - |
| 1788006570 | 19.44° C | 99% | 1013.7 hPa | 0 mm | - | 2 W/m² | - |
| 1788006264 | 19.44° C | 99% | 1013.8 hPa | 0 mm | - | 2 W/m² | - |
| 1788005963 | 19.44° C | 99% | 1014.4 hPa | 0 mm | - | 0 W/m² | - |
| 1788005658 | 19.44° C | 99% | 1014.3 hPa | 0 mm | - | 0 W/m² | - |
| 1788005353 | 19.44° C | 99% | 1014.4 hPa | 1.27 mm | - | 0 W/m² | - |
| 1788005052 | 19.44° C | 99% | 1014.2 hPa | 6.1 mm | - | 0 W/m² | - |
| 1788004750 | 19.44° C | 99% | 1014.4 hPa | 6.6 mm | - | 0 W/m² | - |
| 1788004446 | 19.44° C | 99% | 1014.1 hPa | 3.05 mm | - | 0 W/m² | - |
| 1788004145 | 19.44° C | 99% | 1014.3 hPa | 3.05 mm | - | 0 W/m² | - |
| 1788003844 | 19.44° C | 99% | 1014.2 hPa | 4.83 mm | - | 0 W/m² | - |
| 1788003544 | 19.44° C | 98% | 1014 hPa | 6.1 mm | - | 0 W/m² | - |
| 1788003243 | 19.44° C | 98% | 1014 hPa | 6.1 mm | - | 0 W/m² | - |
* Rain latest hour (hover to see other rain measurements)
** Current wind speed in m/s (hover to see current wind gust speed)